Location: Unspecified
(0.0000°N, 0.0000°E)
Time: 02:38:20
(UTC+02:00)

PROBA 2 - Visible Passes

Search period start: 29 July 2015 00:00
Search period end: 08 August 2015 00:00
Orbit: 707 x 725 km, 98.3° (Epoch: 27 July)

Date Brightness Start Highest point End Pass type
(mag) Time Alt. Az. Time Alt. Az. Time Alt. Az.
29 Jul ? 21:00:26 10° NNW 21:04:32 27° W 21:08:32 10° SW visible
31 Jul ? 20:56:21 10° NNW 21:00:37 30° W 21:04:47 10° SW visible
01 Aug ? 07:42:12 10° SE 07:46:13 28° ENE 07:50:20 10° NNE visible
02 Aug ? 20:52:17 10° NNW 20:56:41 34° W 21:00:59 10° SW visible
03 Aug ? 07:38:27 10° SE 07:42:16 25° E 07:46:14 10° NNE visible
04 Aug ? 20:48:14 10° N 20:52:44 38° WNW 20:57:10 10° SW visible
05 Aug ? 07:34:43 10° SE 07:38:20 22° E 07:42:06 10° NNE visible
06 Aug ? 20:44:13 10° N 20:48:48 43° WNW 20:53:20 10° SSW visible
07 Aug ? 07:31:01 10° SE 07:34:23 20° E 07:37:56 10° NNE visible
07 Aug ? 21:34:58 10° WNW 21:35:52 10° W 21:36:20 10° W visible
